Year,Month,Day,Hour,Minute,Value (Times are PST for temperature in C)
2012,09,29,09,03,11.80
2012,09,29,09,04,11.80
2012,09,29,09,05,11.80
2012,09,29,09,06,11.80
2012,09,29,09,07,11.80
2012,09,29,09,08,11.90
2012,09,29,09,09,11.90
2012,09,29,09,10,11.90
2012,09,29,09,11,11.90
2012,09,29,09,12,11.90
2012,09,29,09,13,11.90
2012,09,29,09,14,11.90
2012,09,29,09,15,11.90
2012,09,29,09,16,11.90
2012,09,29,09,17,11.90
2012,09,29,09,18,12.00
2012,09,29,09,19,12.00
2012,09,29,09,20,12.10
2012,09,29,09,21,12.10
2012,09,29,09,22,12.10
2012,09,29,09,23,12.20
2012,09,29,09,24,12.20
2012,09,29,09,25,12.20
2012,09,29,09,26,12.30
2012,09,29,09,27,12.30
2012,09,29,09,28,12.30
2012,09,29,09,29,12.30
2012,09,29,09,30,12.40
2012,09,29,09,31,12.40
2012,09,29,09,32,12.40
2012,09,29,09,33,12.40
2012,09,29,09,34,12.40
2012,09,29,09,35,12.40
2012,09,29,09,36,12.40
2012,09,29,09,37,12.40
2012,09,29,09,38,12.40
2012,09,29,09,39,12.30
2012,09,29,09,40,12.40
2012,09,29,09,41,12.30
2012,09,29,09,42,12.30
2012,09,29,09,43,12.30
2012,09,29,09,44,12.30
2012,09,29,09,45,12.30
2012,09,29,09,46,12.30
2012,09,29,09,47,12.30
2012,09,29,09,48,12.30
2012,09,29,09,49,12.40
2012,09,29,09,50,12.40
2012,09,29,09,51,12.40
2012,09,29,09,52,12.40
2012,09,29,09,53,12.40
2012,09,29,09,54,12.40
2012,09,29,09,55,12.40
2012,09,29,09,56,12.40
2012,09,29,09,57,12.50
2012,09,29,09,58,12.50
2012,09,29,09,59,12.50
2012,09,29,10,00,12.60
2012,09,29,10,01,12.60
2012,09,29,10,02,12.60
2012,09,29,10,03,12.60
2012,09,29,10,04,12.60
2012,09,29,10,05,12.60
2012,09,29,10,06,12.60
2012,09,29,10,07,12.60
2012,09,29,10,08,12.60
2012,09,29,10,09,12.60
2012,09,29,10,10,12.60
2012,09,29,10,11,12.60
2012,09,29,10,12,12.70
2012,09,29,10,13,12.70
2012,09,29,10,14,12.70
2012,09,29,10,15,12.70
2012,09,29,10,16,12.70
2012,09,29,10,17,12.70
2012,09,29,10,18,12.70
2012,09,29,10,19,12.60
2012,09,29,10,20,12.60
2012,09,29,10,21,12.60
2012,09,29,10,22,12.60
2012,09,29,10,23,12.60
2012,09,29,10,24,12.60
2012,09,29,10,25,12.60
2012,09,29,10,26,12.60
2012,09,29,10,27,12.60
2012,09,29,10,28,12.70
2012,09,29,10,29,12.70
2012,09,29,10,30,12.70
2012,09,29,10,31,12.70
2012,09,29,10,32,12.70
2012,09,29,10,33,12.70
2012,09,29,10,34,12.70
2012,09,29,10,35,12.60
2012,09,29,10,36,12.60
2012,09,29,10,37,12.70
2012,09,29,10,38,12.70
2012,09,29,10,39,12.70
2012,09,29,10,40,12.70
2012,09,29,10,41,12.70
2012,09,29,10,42,12.70
2012,09,29,10,43,12.80
2012,09,29,10,44,12.80
2012,09,29,10,45,12.80
2012,09,29,10,46,12.80
2012,09,29,10,47,12.80
2012,09,29,10,48,12.80
2012,09,29,10,49,12.80
2012,09,29,10,50,12.90
2012,09,29,10,51,12.90
2012,09,29,10,52,13.00
2012,09,29,10,53,13.00
2012,09,29,10,54,13.00
2012,09,29,10,55,13.00
2012,09,29,10,56,13.00
2012,09,29,10,57,13.00
2012,09,29,10,58,13.10
2012,09,29,10,59,13.10
2012,09,29,11,00,13.20
2012,09,29,11,01,13.20
2012,09,29,11,02,13.30
2012,09,29,11,03,13.30
2012,09,29,11,04,13.40
2012,09,29,11,05,13.50
2012,09,29,11,06,13.50
2012,09,29,11,07,13.60
2012,09,29,11,08,13.60
2012,09,29,11,09,13.70
2012,09,29,11,10,13.70
2012,09,29,11,11,13.80
2012,09,29,11,12,13.80
2012,09,29,11,13,13.90
2012,09,29,11,14,13.90
2012,09,29,11,15,13.80
2012,09,29,11,16,13.80
2012,09,29,11,17,13.80
2012,09,29,11,18,13.80
2012,09,29,11,19,13.80
2012,09,29,11,20,13.80
2012,09,29,11,21,13.80
2012,09,29,11,22,13.80
2012,09,29,11,23,13.80
2012,09,29,11,24,13.90
2012,09,29,11,25,13.90
2012,09,29,11,26,13.90
2012,09,29,11,27,13.80
2012,09,29,11,28,13.80
2012,09,29,11,29,13.80
2012,09,29,11,30,13.80
2012,09,29,11,31,13.80
2012,09,29,11,32,13.90
2012,09,29,11,33,13.90
2012,09,29,11,34,13.80
2012,09,29,11,35,13.90
2012,09,29,11,36,13.90
2012,09,29,11,37,13.90
2012,09,29,11,38,13.90
2012,09,29,11,39,13.90
2012,09,29,11,40,13.90
2012,09,29,11,41,13.90
2012,09,29,11,42,14.00
2012,09,29,11,43,14.00
2012,09,29,11,44,13.90
2012,09,29,11,45,13.90
2012,09,29,11,46,13.90
2012,09,29,11,47,13.90
2012,09,29,11,48,13.90
2012,09,29,11,49,13.90
2012,09,29,11,50,13.90
2012,09,29,11,51,13.90
2012,09,29,11,52,13.90
2012,09,29,11,53,13.90
2012,09,29,11,54,13.80
2012,09,29,11,55,13.80
2012,09,29,11,56,13.80
2012,09,29,11,57,13.70
2012,09,29,11,58,13.70
2012,09,29,11,59,13.60
2012,09,29,12,00,13.60
2012,09,29,12,01,13.60
2012,09,29,12,02,13.60
2012,09,29,12,03,13.50
2012,09,29,12,04,13.50
2012,09,29,12,05,13.50
2012,09,29,12,06,13.50
2012,09,29,12,07,13.50
2012,09,29,12,08,13.40
2012,09,29,12,09,13.40
2012,09,29,12,10,13.40
2012,09,29,12,11,13.50
2012,09,29,12,12,13.50
2012,09,29,12,13,13.50
2012,09,29,12,14,13.60
2012,09,29,12,15,13.60
2012,09,29,12,16,13.60
2012,09,29,12,17,13.70
2012,09,29,12,18,13.80
2012,09,29,12,19,13.80
2012,09,29,12,20,13.80
2012,09,29,12,21,13.80
2012,09,29,12,22,13.90
2012,09,29,12,23,13.90
2012,09,29,12,24,13.90
2012,09,29,12,25,13.90
2012,09,29,12,26,13.90
2012,09,29,12,27,13.90
2012,09,29,12,28,13.90
2012,09,29,12,29,14.00
2012,09,29,12,30,14.00
2012,09,29,12,31,14.00
2012,09,29,12,32,14.10
2012,09,29,12,33,14.10
2012,09,29,12,34,14.10
2012,09,29,12,35,14.10
2012,09,29,12,36,14.10
2012,09,29,12,37,14.20
2012,09,29,12,38,14.30
2012,09,29,12,39,14.30
2012,09,29,12,40,14.30
2012,09,29,12,41,14.30
2012,09,29,12,42,14.30
2012,09,29,12,43,14.40
2012,09,29,12,44,14.40
2012,09,29,12,45,14.40
2012,09,29,12,46,14.50
2012,09,29,12,47,14.60
2012,09,29,12,48,14.60
2012,09,29,12,49,14.70
2012,09,29,12,50,14.70
2012,09,29,12,51,14.70
2012,09,29,12,52,14.70
2012,09,29,12,53,14.80
2012,09,29,12,54,14.80
2012,09,29,12,55,14.80
2012,09,29,12,56,14.80
2012,09,29,12,57,14.70
2012,09,29,12,58,14.70
2012,09,29,12,59,14.60
2012,09,29,13,00,14.60
2012,09,29,13,01,14.70
2012,09,29,13,02,14.70
2012,09,29,13,03,14.70
2012,09,29,13,04,14.70
2012,09,29,13,05,14.70
2012,09,29,13,06,14.70
2012,09,29,13,07,14.70
2012,09,29,13,08,14.70
2012,09,29,13,09,14.60
2012,09,29,13,10,14.60
2012,09,29,13,11,14.60
2012,09,29,13,12,14.70
2012,09,29,13,13,14.70
2012,09,29,13,14,14.70
2012,09,29,13,15,14.70
2012,09,29,13,16,14.70
2012,09,29,13,17,14.80
2012,09,29,13,18,14.80
2012,09,29,13,19,14.80
2012,09,29,13,20,14.90
2012,09,29,13,21,15.00
2012,09,29,13,22,15.00
2012,09,29,13,23,15.00
2012,09,29,13,24,15.10
2012,09,29,13,25,15.20
2012,09,29,13,26,15.20
2012,09,29,13,27,15.20
2012,09,29,13,28,15.20
2012,09,29,13,29,15.30
2012,09,29,13,30,15.20
2012,09,29,13,31,15.20
2012,09,29,13,32,15.10
2012,09,29,13,33,15.00
2012,09,29,13,34,15.00
2012,09,29,13,35,14.90
2012,09,29,13,36,14.90
2012,09,29,13,37,14.80
2012,09,29,13,38,14.80
2012,09,29,13,39,14.80
2012,09,29,13,40,14.80
2012,09,29,13,41,14.80
2012,09,29,13,42,14.80
2012,09,29,13,43,14.90
2012,09,29,13,44,15.00
2012,09,29,13,45,15.00
2012,09,29,13,46,15.00
2012,09,29,13,47,15.00
2012,09,29,13,48,15.00
2012,09,29,13,49,15.00
2012,09,29,13,50,15.20
2012,09,29,13,51,15.20
2012,09,29,13,52,15.20
2012,09,29,13,53,15.20
2012,09,29,13,54,15.10
2012,09,29,13,55,15.10
2012,09,29,13,56,15.10
2012,09,29,13,57,15.00
2012,09,29,13,58,15.00
2012,09,29,13,59,15.00
2012,09,29,14,00,15.00
2012,09,29,14,01,15.00
2012,09,29,14,02,15.00
2012,09,29,14,03,15.10
2012,09,29,14,04,15.10
2012,09,29,14,05,15.20
2012,09,29,14,06,15.30
2012,09,29,14,07,15.30
2012,09,29,14,08,15.30
2012,09,29,14,09,15.30
2012,09,29,14,10,15.20
2012,09,29,14,11,15.20
2012,09,29,14,12,15.20
2012,09,29,14,13,15.20
2012,09,29,14,14,15.20
2012,09,29,14,15,15.20
2012,09,29,14,16,15.00
2012,09,29,14,17,15.00
2012,09,29,14,18,15.00
2012,09,29,14,19,15.00
2012,09,29,14,20,15.00
2012,09,29,14,21,14.90
2012,09,29,14,22,14.80
2012,09,29,14,23,14.80
2012,09,29,14,24,14.80
2012,09,29,14,25,14.80
2012,09,29,14,26,14.80
2012,09,29,14,27,14.80
2012,09,29,14,28,14.80
2012,09,29,14,29,14.80
2012,09,29,14,30,14.80
2012,09,29,14,31,14.80
2012,09,29,14,32,14.80
2012,09,29,14,33,14.70
2012,09,29,14,34,14.70
2012,09,29,14,35,14.70
2012,09,29,14,36,14.60
2012,09,29,14,37,14.60
2012,09,29,14,38,14.60
2012,09,29,14,39,14.60
2012,09,29,14,40,14.60
2012,09,29,14,41,14.60
2012,09,29,14,42,14.60
2012,09,29,14,43,14.60
2012,09,29,14,44,14.70
2012,09,29,14,45,14.70
2012,09,29,14,46,14.70
2012,09,29,14,47,14.60
2012,09,29,14,48,14.60
2012,09,29,14,49,14.60
2012,09,29,14,50,14.60
2012,09,29,14,51,14.60
2012,09,29,14,52,14.70
2012,09,29,14,53,14.70
2012,09,29,14,54,14.60
2012,09,29,14,55,14.60
2012,09,29,14,56,14.60
2012,09,29,14,57,14.60
2012,09,29,14,58,14.60
2012,09,29,14,59,14.60
2012,09,29,15,00,14.60
2012,09,29,15,01,14.60
2012,09,29,15,02,14.50
2012,09,29,15,03,14.50
2012,09,29,15,04,14.50
2012,09,29,15,05,14.50
2012,09,29,15,06,14.50
2012,09,29,15,07,14.50
2012,09,29,15,08,14.40
2012,09,29,15,09,14.40
2012,09,29,15,10,14.40
2012,09,29,15,11,14.40
2012,09,29,15,12,14.40
2012,09,29,15,13,14.40
2012,09,29,15,14,14.40
2012,09,29,15,15,14.40
2012,09,29,15,16,14.40
2012,09,29,15,17,14.50
2012,09,29,15,18,14.50
2012,09,29,15,19,14.60
2012,09,29,15,20,14.60
2012,09,29,15,21,14.70
2012,09,29,15,22,14.70
2012,09,29,15,23,14.70
2012,09,29,15,24,14.70
2012,09,29,15,25,14.70
2012,09,29,15,26,14.60
2012,09,29,15,27,14.60
2012,09,29,15,28,14.60
2012,09,29,15,29,14.60
2012,09,29,15,30,14.60
2012,09,29,15,31,14.60
2012,09,29,15,32,14.60
2012,09,29,15,33,14.60
2012,09,29,15,34,14.60
2012,09,29,15,35,14.70
2012,09,29,15,36,14.60
2012,09,29,15,37,14.60
2012,09,29,15,38,14.60
2012,09,29,15,39,14.70
2012,09,29,15,40,14.70
2012,09,29,15,41,14.70
2012,09,29,15,42,14.60
2012,09,29,15,43,14.60
2012,09,29,15,44,14.60
2012,09,29,15,45,14.60
2012,09,29,15,46,14.50
2012,09,29,15,47,14.50
2012,09,29,15,48,14.50
2012,09,29,15,49,14.60
2012,09,29,15,50,14.60
2012,09,29,15,51,14.60
2012,09,29,15,52,14.70
2012,09,29,15,53,14.70
2012,09,29,15,54,14.70
2012,09,29,15,55,14.80
2012,09,29,15,56,14.90
2012,09,29,15,57,15.00
2012,09,29,15,58,15.00
2012,09,29,15,59,15.00
2012,09,29,16,00,15.00
2012,09,29,16,01,15.00
2012,09,29,16,02,14.90
2012,09,29,16,03,14.90
2012,09,29,16,04,14.80
2012,09,29,16,05,14.80
2012,09,29,16,06,14.80
2012,09,29,16,07,14.80
2012,09,29,16,08,14.70
2012,09,29,16,09,14.70
2012,09,29,16,10,14.80
2012,09,29,16,11,14.80
2012,09,29,16,12,14.80
2012,09,29,16,13,14.90
2012,09,29,16,14,15.00
2012,09,29,16,15,15.00
2012,09,29,16,16,15.00
2012,09,29,16,17,15.00
2012,09,29,16,18,15.00
2012,09,29,16,19,15.00
2012,09,29,16,20,15.10
2012,09,29,16,21,15.20
2012,09,29,16,22,15.20
2012,09,29,16,23,15.20
2012,09,29,16,24,15.10
2012,09,29,16,25,15.00
2012,09,29,16,26,15.00
2012,09,29,16,27,15.00
2012,09,29,16,28,15.00
2012,09,29,16,29,15.00
2012,09,29,16,30,15.00
2012,09,29,16,31,15.00
2012,09,29,16,32,14.90
2012,09,29,16,33,15.00
2012,09,29,16,34,15.00
2012,09,29,16,35,14.90
2012,09,29,16,36,14.90
2012,09,29,16,37,14.90
2012,09,29,16,38,14.90
2012,09,29,16,39,14.80
2012,09,29,16,40,14.80
2012,09,29,16,41,14.70
2012,09,29,16,42,14.70
2012,09,29,16,43,14.60
2012,09,29,16,44,14.60
2012,09,29,16,45,14.60
2012,09,29,16,46,14.60
2012,09,29,16,47,14.70
2012,09,29,16,48,14.70
2012,09,29,16,49,14.70
2012,09,29,16,50,14.60
2012,09,29,16,51,14.60
2012,09,29,16,52,14.60
2012,09,29,16,53,14.60
2012,09,29,16,54,14.70
2012,09,29,16,55,14.70
2012,09,29,16,56,14.70
2012,09,29,16,57,14.80
2012,09,29,16,58,14.80
2012,09,29,16,59,14.80
2012,09,29,17,00,14.90
2012,09,29,17,01,14.90
2012,09,29,17,02,15.00
2012,09,29,17,03,14.90
2012,09,29,17,04,15.00
2012,09,29,17,05,14.90
2012,09,29,17,06,14.90
2012,09,29,17,07,14.90
2012,09,29,17,08,14.90
2012,09,29,17,09,14.90
2012,09,29,17,10,14.90
2012,09,29,17,11,14.90
2012,09,29,17,12,15.00
2012,09,29,17,13,15.00
2012,09,29,17,14,15.00
2012,09,29,17,15,15.00
2012,09,29,17,16,15.00
2012,09,29,17,17,15.00
2012,09,29,17,18,15.00
2012,09,29,17,19,15.00
2012,09,29,17,20,15.00
2012,09,29,17,21,15.00
2012,09,29,17,22,15.00
2012,09,29,17,23,15.00
2012,09,29,17,24,15.00
2012,09,29,17,25,14.90
2012,09,29,17,26,14.80
2012,09,29,17,27,14.80
2012,09,29,17,28,14.80
2012,09,29,17,29,14.80
2012,09,29,17,30,14.70
2012,09,29,17,31,14.70
2012,09,29,17,32,14.60
2012,09,29,17,33,14.60
2012,09,29,17,34,14.60
2012,09,29,17,35,14.60
2012,09,29,17,36,14.60
2012,09,29,17,37,14.50
2012,09,29,17,38,14.50
2012,09,29,17,39,14.50
2012,09,29,17,40,14.50
2012,09,29,17,41,14.50
2012,09,29,17,42,14.50
2012,09,29,17,43,14.50
2012,09,29,17,44,14.50
2012,09,29,17,45,14.60
2012,09,29,17,46,14.60
2012,09,29,17,47,14.60
2012,09,29,17,48,14.60
2012,09,29,17,49,14.60
2012,09,29,17,50,14.70
2012,09,29,17,51,14.60
2012,09,29,17,52,14.60
2012,09,29,17,53,14.60
2012,09,29,17,54,14.60
2012,09,29,17,55,14.60
2012,09,29,17,56,14.50
2012,09,29,17,57,14.50
2012,09,29,17,58,14.50
2012,09,29,17,59,14.40
2012,09,29,18,00,14.40
2012,09,29,18,01,14.40
2012,09,29,18,02,14.40
2012,09,29,18,03,14.40
2012,09,29,18,04,14.30
2012,09,29,18,05,14.30
2012,09,29,18,06,14.30
2012,09,29,18,07,14.30
2012,09,29,18,08,14.30
2012,09,29,18,09,14.30
2012,09,29,18,10,14.30
2012,09,29,18,11,14.30
2012,09,29,18,12,14.30
2012,09,29,18,13,14.30
2012,09,29,18,14,14.30
2012,09,29,18,15,14.30
2012,09,29,18,16,14.30
